Home   Weather   Oran   Past weeks

Flag for Algeria Past Weather in Oran, Algeria — Yesterday and Last 2 Weeks

66 °F

Passing clouds.

Feels Like: 66 °F
Forecast: 64 / 79 °F
Wind: No wind

Location: Oran / Es Senia

Current Time: Oct 22, 2016 at 10:39:41 PM

Latest Report: Oct 22, 2016 at 10:00 PM

Visibility: N/A

Pressure: 29.86 "Hg

Humidity: 94%

Dew Point: 64 °F

Location of OranLocation

Past Weather in Oran — Graph


Oran Temperature Yesterday

Maximum temperature yesterday: 81 °F (at 1:30 PM)
Minimum temperature yesterday: 64 °F (at 5:30 AM)
Average temperature yesterday: 72 °F

High & Low Weather Summary for the Past Weeks

High90 °F (Oct 8, 1:00 PM)100% (Oct 15, 6:30 AM)30.24 "Hg (Oct 15, 6:30 AM)
Low55 °F (Oct 10, 4:30 AM)27% (Oct 8, 12:30 PM)29.59 "Hg (Oct 13, 5:00 AM)
Average69 °F77%29.96 "Hg
* Reported Oct 7 9:00 PM — Oct 22 9:00 PM, Oran, Weather by CustomWeather, © 2016

Note: Actual official high and low records may vary slightly from our data, if they occured in-between our weather recording intervals... More about our weather records


Oran Weather History for the Previous 24 Hours

Scroll right to see more
Time TempWeatherWind HumidityBarometerVisibility
9:00 PM
Sat, Oct 22
68 °FPassing clouds.2 mph94%29.86 "HgN/A
8:30 PM68 °FPassing clouds.No wind94%29.86 "HgN/A
8:00 PM70 °FPassing clouds.No wind88%29.86 "HgN/A
7:30 PM70 °FPassing clouds.2 mph94%29.86 "HgN/A
7:00 PM70 °FPassing clouds.2 mph94%29.83 "HgN/A
6:30 PM72 °FPassing clouds.7 mph88%29.83 "HgN/A
6:00 PM72 °FScattered clouds.7 mph88%29.83 "HgN/A
5:30 PM75 °FScattered clouds.10 mph78%29.80 "HgN/A
5:00 PM75 °FScattered clouds.10 mph78%29.80 "HgN/A
4:30 PM75 °FScattered clouds.12 mph74%29.80 "HgN/A
4:00 PM75 °FPassing clouds.13 mph78%29.80 "HgN/A
3:30 PM77 °FPassing clouds.14 mph69%29.80 "HgN/A
3:00 PM77 °FPassing clouds.13 mph74%29.80 "HgN/A
2:30 PM77 °FScattered clouds.13 mph74%29.80 "HgN/A
2:00 PM77 °FScattered clouds.12 mph69%29.80 "HgN/A
1:30 PM79 °FScattered clouds.3 mph61%29.80 "HgN/A
1:00 PM79 °FScattered clouds.No wind61%29.83 "HgN/A
12:30 PM79 °FScattered clouds.3 mph61%29.83 "HgN/A
12:00 PM77 °FScattered clouds.2 mph65%29.83 "HgN/A
11:30 AM75 °FScattered clouds.2 mph74%29.83 "HgN/A
11:00 AM73 °FScattered clouds.2 mph78%29.86 "HgN/A
10:30 AM72 °FScattered clouds.2 mph83%29.86 "HgN/A
10:00 AM72 °FScattered clouds.3 mph83%29.86 "HgN/A
9:30 AM70 °FBroken clouds.8 mph88%29.86 "HgN/A
9:00 AM68 °FBroken clouds.5 mph94%29.86 "HgN/A
8:30 AM68 °FBroken clouds.2 mph88%29.86 "HgN/A
8:00 AM66 °FBroken clouds.2 mph94%29.83 "HgN/A
7:30 AM66 °FBroken clouds.5 mph94%29.83 "HgN/A
7:00 AM66 °FPartly cloudy.No wind88%29.83 "HgN/A
6:30 AM66 °FPartly cloudy.No wind94%29.83 "HgN/A
6:00 AM68 °FPartly cloudy.2 mph88%29.83 "HgN/A
5:30 AM68 °FPartly cloudy.5 mph88%29.86 "HgN/A
5:00 AM68 °FPartly cloudy.5 mph88%29.86 "HgN/A
4:30 AM66 °FPassing clouds.5 mph88%29.86 "HgN/A
4:00 AM66 °FPassing clouds.7 mph88%29.86 "HgN/A
3:30 AM66 °FPassing clouds.5 mph94%29.86 "HgN/A
3:00 AM66 °FPassing clouds.1 mph94%29.86 "HgN/A
2:30 AM68 °FPassing clouds.2 mph94%29.86 "HgN/A
2:00 AM68 °FPassing clouds.5 mph94%29.86 "HgN/A
1:00 AM68 °FPassing clouds.2 mph88%29.86 "HgN/A
12:30 AM68 °FPassing clouds.5 mph94%29.89 "HgN/A
12:00 AM68 °FPassing clouds.5 mph94%29.89 "HgN/A
11:30 PM
Fri, Oct 21
70 °FPassing clouds.7 mph88%29.89 "HgN/A
11:00 PM70 °FPassing clouds.5 mph88%29.89 "HgN/A
10:30 PM70 °FPassing clouds.5 mph88%29.89 "HgN/A
10:00 PM70 °FPassing clouds.5 mph88%29.89 "HgN/A
Weather by CustomWeather, © 2016

See weather overviewHow to use our weather pages